UAE13U EDDF-OMDB

Flight info

Callsign UAE13U
Flight time N/A
Altitude 35000
Route CINDY8S CINDY Z74 LAMPU DCT NOMBO Y161 MAH DCT LATLO DCT OBEDI DCT BABOL DCT NISVA DCT USALI DCT OTKOK DCT RODIP DCT BELGI DCT KETEK UT38 VESAR L620 BALMA UR655 CEDAR/N0488F370 UR655 LEBOR R655 KTN R785 RASLI P559 TRF R23 NEVOL N318 TAMRO T503 KSA M321 RESAL T533 RAPMA DCT KUVSO DCT KATIT DCT PEKEM M628 RIGIL G783 ELUDA/N0501F350 G783 ASPED Q308 KIPOK Q568 IMPED
Aircraft B77W/H-SDE1E2E3FGHIJ2J3J4J5M1RWXY/LB1D1

Departure

Time 2026-05-06 08:17
Airport Frankfurt Main Airport (EDDF)

Arrival

Time N/A
Airport Dubai International Airport (OMDB)
Time Latitude Longitude Altitude Speed Heading
2026-05-06 07:25 50.03078 8.57757 364 ft 0 kts 205°
2026-05-06 08:02 50.03096 8.57770 368 ft 4 kts 205°
2026-05-06 08:02 50.03115 8.57784 367 ft 4 kts 203°
2026-05-06 08:02 50.03139 8.57795 364 ft 4 kts 181°
2026-05-06 08:03 50.03160 8.57791 364 ft 4 kts 149°
2026-05-06 08:03 50.03178 8.57768 368 ft 4 kts 130°
2026-05-06 08:03 50.03192 8.57735 366 ft 4 kts 112°
2026-05-06 08:03 50.03200 8.57703 364 ft 3 kts 115°
2026-05-06 08:04 50.03211 8.57666 368 ft 4 kts 115°
2026-05-06 08:04 50.03222 8.57628 368 ft 4 kts 115°
2026-05-06 08:04 50.03234 8.57590 368 ft 4 kts 115°
2026-05-06 08:04 50.03245 8.57552 367 ft 4 kts 115°
2026-05-06 08:05 50.03256 8.57513 368 ft 4 kts 115°
2026-05-06 08:05 50.03262 8.57495 365 ft 0 kts 115°
2026-05-06 08:07 50.03261 8.57498 367 ft 1 kts 115°
2026-05-06 08:08 50.03249 8.57539 363 ft 9 kts 115°
2026-05-06 08:08 50.03230 8.57658 364 ft 11 kts 77°
2026-05-06 08:08 50.03289 8.57699 366 ft 10 kts 348°
2026-05-06 08:08 50.03351 8.57663 367 ft 6 kts 339°
2026-05-06 08:09 50.03372 8.57651 366 ft 0 kts 339°
2026-05-06 08:09 50.03374 8.57649 366 ft 1 kts 339°
2026-05-06 08:09 50.03391 8.57640 368 ft 3 kts 340°
2026-05-06 08:10 50.03410 8.57629 368 ft 3 kts 340°
2026-05-06 08:10 50.03433 8.57617 366 ft 4 kts 340°
2026-05-06 08:10 50.03455 8.57581 366 ft 5 kts 289°
2026-05-06 08:10 50.03449 8.57517 363 ft 8 kts 254°
2026-05-06 08:11 50.03422 8.57403 363 ft 14 kts 249°
2026-05-06 08:11 50.03382 8.57239 362 ft 19 kts 250°
2026-05-06 08:11 50.03330 8.57022 366 ft 24 kts 249°
2026-05-06 08:11 50.03272 8.56774 361 ft 24 kts 250°
2026-05-06 08:12 50.03212 8.56522 359 ft 25 kts 249°
2026-05-06 08:12 50.03152 8.56268 359 ft 25 kts 250°
2026-05-06 08:12 50.03091 8.56013 357 ft 25 kts 249°
2026-05-06 08:12 50.03029 8.55760 357 ft 25 kts 249°
2026-05-06 08:13 50.02969 8.55507 357 ft 25 kts 249°
2026-05-06 08:13 50.02908 8.55253 354 ft 25 kts 249°
2026-05-06 08:13 50.02846 8.55000 351 ft 25 kts 250°
2026-05-06 08:13 50.02786 8.54746 352 ft 25 kts 249°
2026-05-06 08:14 50.02726 8.54492 352 ft 25 kts 249°
2026-05-06 08:14 50.02673 8.54235 350 ft 25 kts 254°
2026-05-06 08:14 50.02614 8.53980 337 ft 25 kts 250°
2026-05-06 08:14 50.02554 8.53727 336 ft 25 kts 249°
2026-05-06 08:15 50.02493 8.53473 351 ft 25 kts 249°
2026-05-06 08:15 50.02432 8.53220 336 ft 25 kts 249°
2026-05-06 08:15 50.02371 8.52966 337 ft 25 kts 250°
2026-05-06 08:15 50.02315 8.52729 335 ft 18 kts 250°
2026-05-06 08:16 50.02277 8.52620 336 ft 9 kts 217°
2026-05-06 08:16 50.02229 8.52606 338 ft 5 kts 177°
2026-05-06 08:16 50.02225 8.52606 338 ft 4 kts 177°
2026-05-06 08:16 50.01951 8.52608 335 ft 81 kts 180°
2026-05-06 08:17 50.01127 8.52615 336 ft 154 kts 179°
2026-05-06 08:17 49.99926 8.52646 590 ft 182 kts 179°
2026-05-06 08:17 49.98693 8.52652 1522 ft 178 kts 183°
2026-05-06 08:17 49.97392 8.52729 1796 ft 203 kts 167°
2026-05-06 08:18 49.96215 8.53974 2391 ft 207 kts 132°
2026-05-06 08:18 49.95403 8.55945 2784 ft 229 kts 122°
2026-05-06 08:18 49.94617 8.58139 3327 ft 237 kts 122°
2026-05-06 08:18 49.94003 8.60532 3844 ft 248 kts 100°
2026-05-06 08:19 49.93900 8.63321 4107 ft 269 kts 93°
2026-05-06 08:19 49.93819 8.66259 4838 ft 276 kts 94°
2026-05-06 08:19 49.93446 8.69166 5448 ft 278 kts 120°
2026-05-06 08:19 49.92178 8.71370 6183 ft 274 kts 148°
2026-05-06 08:20 49.90601 8.73066 6884 ft 278 kts 148°
2026-05-06 08:20 49.89023 8.74802 7684 ft 278 kts 145°
2026-05-06 08:20 49.87741 8.77085 8250 ft 288 kts 122°
2026-05-06 08:20 49.86803 8.79859 8939 ft 292 kts 121°
2026-05-06 08:21 49.85839 8.82630 9779 ft 293 kts 122°
2026-05-06 08:21 49.84840 8.85417 10374 ft 303 kts 122°
2026-05-06 08:21 49.83766 8.88380 10566 ft 328 kts 122°
2026-05-06 08:21 49.82608 8.91563 10761 ft 352 kts 122°
2026-05-06 08:22 49.81380 8.94941 11065 ft 372 kts 122°
2026-05-06 08:22 49.80097 8.98482 11747 ft 382 kts 122°
2026-05-06 08:22 49.78780 9.02106 12622 ft 387 kts 122°
2026-05-06 08:22 49.77455 9.05744 13532 ft 391 kts 122°
2026-05-06 08:23 49.76119 9.09427 14324 ft 393 kts 123°
2026-05-06 08:23 49.74573 9.12928 15052 ft 396 kts 132°
2026-05-06 08:23 49.72659 9.15994 15867 ft 396 kts 141°
2026-05-06 08:23 49.70597 9.18845 16703 ft 400 kts 141°
2026-05-06 08:24 49.68522 9.21746 17484 ft 405 kts 140°
2026-05-06 08:24 49.66433 9.24690 18220 ft 410 kts 140°
2026-05-06 08:24 49.64323 9.27677 18880 ft 414 kts 140°
2026-05-06 08:24 49.62187 9.30708 19558 ft 419 kts 140°
2026-05-06 08:25 49.60035 9.33760 20196 ft 423 kts 140°
2026-05-06 08:25 49.57854 9.36856 20831 ft 428 kts 140°
2026-05-06 08:25 49.55651 9.39980 21467 ft 433 kts 140°
2026-05-06 08:25 49.53427 9.43129 22079 ft 437 kts 141°
2026-05-06 08:26 49.51174 9.46316 22683 ft 442 kts 141°
2026-05-06 08:26 49.48900 9.49527 23284 ft 446 kts 141°
2026-05-06 08:26 49.46598 9.52773 23808 ft 450 kts 141°
2026-05-06 08:26 49.44284 9.56034 24367 ft 452 kts 141°
2026-05-06 08:27 49.41957 9.59310 24959 ft 453 kts 142°
2026-05-06 08:27 49.39632 9.62577 25523 ft 454 kts 142°
2026-05-06 08:27 49.37294 9.65857 26037 ft 457 kts 142°
2026-05-06 08:27 49.34965 9.69119 26533 ft 459 kts 142°
2026-05-06 08:28 49.32602 9.72425 27017 ft 462 kts 142°
2026-05-06 08:28 49.31000 9.74664 27335 ft 463 kts 142°
2026-05-06 08:28 49.30725 9.75048 27393 ft 463 kts 142°
2026-05-06 08:29 49.28530 9.78111 27814 ft 465 kts 143°
2026-05-06 08:29 49.26130 9.81456 28287 ft 467 kts 143°
2026-05-06 08:29 49.23719 9.84812 28674 ft 470 kts 143°
2026-05-06 08:29 49.21294 9.88184 29034 ft 472 kts 143°
2026-05-06 08:30 49.18862 9.91561 29425 ft 474 kts 143°
2026-05-06 08:30 49.16412 9.94959 29794 ft 475 kts 143°
2026-05-06 08:30 49.13963 9.98352 30159 ft 475 kts 143°
2026-05-06 08:30 49.11520 10.01732 30546 ft 474 kts 143°
2026-05-06 08:31 49.09077 10.05109 30911 ft 474 kts 144°
2026-05-06 08:31 49.06634 10.08476 31251 ft 474 kts 144°
2026-05-06 08:31 49.04201 10.11865 31586 ft 474 kts 143°
2026-05-06 08:31 49.01770 10.15306 31910 ft 475 kts 143°
2026-05-06 08:32 48.99355 10.18736 32232 ft 475 kts 143°
2026-05-06 08:32 48.96932 10.22163 32525 ft 476 kts 143°
2026-05-06 08:32 48.94531 10.25542 32822 ft 476 kts 143°
2026-05-06 08:32 48.92101 10.28960 33114 ft 477 kts 143°
2026-05-06 08:33 48.89664 10.32392 33380 ft 478 kts 143°
2026-05-06 08:33 48.87220 10.35833 33667 ft 478 kts 143°
2026-05-06 08:33 48.85801 10.37827 33839 ft 478 kts 143°
2026-05-06 08:34 48.82369 10.42705 34175 ft 481 kts 141°
2026-05-06 08:34 48.80060 10.46389 34410 ft 482 kts 139°
2026-05-06 08:35 48.77786 10.50120 34649 ft 483 kts 139°
2026-05-06 08:35 48.75494 10.53862 34755 ft 485 kts 139°
2026-05-06 08:35 48.73173 10.57611 34794 ft 487 kts 139°
2026-05-06 08:36 48.68489 10.64960 34819 ft 482 kts 140°
2026-05-06 08:36 48.63837 10.72237 34824 ft 480 kts 139°
2026-05-06 08:37 48.59309 10.79676 34823 ft 484 kts 134°
2026-05-06 08:37 48.55334 10.87929 34816 ft 487 kts 131°
2026-05-06 08:38 48.51411 10.96266 34837 ft 487 kts 131°
2026-05-06 08:38 48.47460 11.04565 34825 ft 487 kts 132°
2026-05-06 08:39 48.43513 11.12767 34823 ft 487 kts 132°
2026-05-06 08:39 48.39520 11.21023 34825 ft 487 kts 132°
2026-05-06 08:40 48.35529 11.29248 34818 ft 487 kts 132°
2026-05-06 08:40 48.31537 11.37456 34811 ft 486 kts 133°
2026-05-06 08:41 48.27542 11.45646 34814 ft 485 kts 133°
2026-05-06 08:41 48.23553 11.53801 34819 ft 484 kts 133°
2026-05-06 08:42 48.19567 11.61924 34819 ft 483 kts 133°
2026-05-06 08:42 48.15573 11.70038 34815 ft 483 kts 133°
2026-05-06 08:43 48.11578 11.78130 34815 ft 483 kts 133°
2026-05-06 08:43 48.07578 11.86208 34816 ft 483 kts 133°
2026-05-06 08:44 48.03568 11.94281 34825 ft 484 kts 133°
2026-05-06 08:44 47.99549 12.02350 34814 ft 484 kts 133°
2026-05-06 08:45 47.95519 12.10415 34807 ft 485 kts 133°
2026-05-06 08:45 47.91485 12.18469 34807 ft 485 kts 133°
2026-05-06 08:46 47.87445 12.26510 34808 ft 485 kts 133°
2026-05-06 08:46 47.83397 12.34541 34804 ft 484 kts 134°
2026-05-06 08:47 47.79347 12.42552 34806 ft 484 kts 134°
2026-05-06 08:47 47.75295 12.50543 34824 ft 484 kts 134°
2026-05-06 08:48 47.71227 12.58544 34810 ft 485 kts 134°
2026-05-06 08:48 47.67153 12.66537 34809 ft 486 kts 134°
2026-05-06 08:49 47.63097 12.74465 34793 ft 485 kts 134°
2026-05-06 08:49 47.59019 12.82413 34794 ft 484 kts 134°
2026-05-06 08:50 47.54948 12.90334 34807 ft 483 kts 134°
2026-05-06 08:50 47.50872 12.98222 34790 ft 481 kts 134°
2026-05-06 08:51 47.46811 13.06079 34824 ft 483 kts 134°
2026-05-06 08:51 47.42721 13.13964 34830 ft 483 kts 134°
2026-05-06 08:52 47.38622 13.21841 34841 ft 485 kts 134°
2026-05-06 08:52 47.34485 13.29774 34841 ft 489 kts 134°
2026-05-06 08:53 47.30521 13.38013 34850 ft 496 kts 129°
2026-05-06 08:53 47.26811 13.46529 34848 ft 498 kts 129°
2026-05-06 08:54 47.23079 13.55105 34888 ft 498 kts 129°
2026-05-06 08:54 47.19317 13.63668 34889 ft 500 kts 129°
2026-05-06 08:55 47.15526 13.72241 34900 ft 499 kts 129°
2026-05-06 08:55 47.11725 13.80794 34905 ft 500 kts 130°
2026-05-06 08:56 47.07911 13.89349 34903 ft 501 kts 129°
2026-05-06 08:56 47.05047 13.95766 34897 ft 501 kts 129°
2026-05-06 08:57 47.01233 14.04290 34913 ft 499 kts 129°
2026-05-06 08:57 46.97412 14.12799 34900 ft 500 kts 129°
2026-05-06 08:58 46.93585 14.21289 34910 ft 500 kts 129°
2026-05-06 08:58 46.89764 14.29742 34914 ft 501 kts 129°
2026-05-06 08:59 46.85911 14.38242 34930 ft 502 kts 129°
2026-05-06 08:59 46.82037 14.46763 34933 ft 504 kts 129°
2026-05-06 09:00 46.78145 14.55300 34934 ft 506 kts 129°
2026-05-06 09:00 46.74354 14.63984 34934 ft 510 kts 126°
2026-05-06 09:01 46.70800 14.72951 34930 ft 512 kts 125°
2026-05-06 09:01 46.67266 14.81962 34921 ft 512 kts 125°
2026-05-06 09:02 46.63719 14.90874 34922 ft 511 kts 125°
2026-05-06 09:02 46.60133 14.99778 34938 ft 510 kts 125°
2026-05-06 09:03 46.56530 15.08676 34910 ft 509 kts 125°
2026-05-06 09:03 46.52934 15.17531 34926 ft 508 kts 125°
2026-05-06 09:04 46.49339 15.26356 34928 ft 508 kts 125°
2026-05-06 09:04 46.45738 15.35176 34917 ft 507 kts 125°
2026-05-06 09:05 46.42158 15.43910 34937 ft 506 kts 125°
2026-05-06 09:05 46.38554 15.52681 34926 ft 507 kts 125°
2026-05-06 09:06 46.34939 15.61450 34928 ft 507 kts 125°
2026-05-06 09:06 46.31319 15.70201 34933 ft 507 kts 125°
2026-05-06 09:07 46.27691 15.78944 34925 ft 507 kts 125°
2026-05-06 09:07 46.24054 15.87683 34936 ft 507 kts 125°
2026-05-06 09:08 46.20411 15.96404 34931 ft 507 kts 125°
2026-05-06 09:08 46.16760 16.05119 34939 ft 508 kts 125°
2026-05-06 09:09 46.13098 16.13833 34940 ft 508 kts 125°
2026-05-06 09:09 46.09423 16.22552 34942 ft 509 kts 125°
2026-05-06 09:10 46.05745 16.31250 34944 ft 508 kts 125°
2026-05-06 09:10 46.02058 16.39944 34951 ft 508 kts 125°
2026-05-06 09:11 45.98592 16.48092 34948 ft 507 kts 125°
2026-05-06 09:11 45.96097 16.53940 34950 ft 507 kts 125°
2026-05-06 09:12 45.92404 16.62574 34947 ft 506 kts 125°
2026-05-06 09:12 45.88714 16.71178 34950 ft 506 kts 125°
2026-05-06 09:13 45.85011 16.79783 34951 ft 505 kts 125°
2026-05-06 09:13 45.81310 16.88358 34952 ft 505 kts 125°
2026-05-06 09:14 45.77606 16.96913 34955 ft 505 kts 125°
2026-05-06 09:14 45.73920 17.05403 34974 ft 505 kts 125°
2026-05-06 09:15 45.70199 17.13945 34968 ft 506 kts 125°
2026-05-06 09:15 45.66470 17.22481 34967 ft 506 kts 125°
2026-05-06 09:16 45.62729 17.31017 34939 ft 507 kts 125°
2026-05-06 09:16 45.58987 17.39530 34960 ft 506 kts 125°
2026-05-06 09:17 45.55233 17.48045 34952 ft 506 kts 125°
2026-05-06 09:17 45.51483 17.56524 34962 ft 506 kts 125°
2026-05-06 09:18 45.47716 17.65021 34951 ft 506 kts 125°
2026-05-06 09:18 45.43974 17.73433 34963 ft 506 kts 125°
2026-05-06 09:19 45.40187 17.81918 34962 ft 507 kts 125°
2026-05-06 09:19 45.36389 17.90399 34962 ft 508 kts 125°
2026-05-06 09:20 45.32588 17.98869 34965 ft 509 kts 125°
2026-05-06 09:20 45.28777 18.07337 34963 ft 509 kts 125°
2026-05-06 09:21 45.24976 18.15753 34964 ft 509 kts 126°
2026-05-06 09:21 45.21158 18.24182 34965 ft 508 kts 126°
2026-05-06 09:22 45.17326 18.32618 34969 ft 508 kts 126°
2026-05-06 09:22 45.14141 18.39611 34973 ft 508 kts 126°
2026-05-06 09:23 45.10305 18.48011 34976 ft 508 kts 126°
2026-05-06 09:23 45.06532 18.56246 34974 ft 507 kts 126°
2026-05-06 09:24 45.02686 18.64619 34980 ft 507 kts 126°
2026-05-06 09:24 44.98835 18.72977 34977 ft 507 kts 126°
2026-05-06 09:25 44.94976 18.81329 34978 ft 508 kts 126°
2026-05-06 09:25 44.91113 18.89663 34980 ft 508 kts 126°
2026-05-06 09:26 44.87261 18.97952 34989 ft 508 kts 126°
2026-05-06 09:26 44.83376 19.06283 34981 ft 508 kts 126°
2026-05-06 09:27 44.79489 19.14600 34989 ft 508 kts 126°
2026-05-06 09:27 44.75598 19.22901 34989 ft 508 kts 126°
2026-05-06 09:28 44.71699 19.31192 34997 ft 508 kts 126°
2026-05-06 09:28 44.67791 19.39479 34986 ft 508 kts 126°
2026-05-06 09:29 44.63875 19.47759 34993 ft 508 kts 126°
2026-05-06 09:29 44.59960 19.56012 35010 ft 508 kts 126°
2026-05-06 09:30 44.56031 19.64274 35013 ft 509 kts 126°
2026-05-06 09:30 44.52094 19.72527 34992 ft 509 kts 126°
2026-05-06 09:31 44.48180 19.80710 35011 ft 509 kts 126°
2026-05-06 09:31 44.44228 19.88949 35012 ft 509 kts 126°
2026-05-06 09:32 44.40269 19.97176 35011 ft 509 kts 126°
2026-05-06 09:32 44.36308 20.05385 34992 ft 509 kts 126°
2026-05-06 09:33 44.32338 20.13591 35013 ft 509 kts 126°
2026-05-06 09:33 44.28368 20.21774 35013 ft 509 kts 126°
2026-05-06 09:34 44.24393 20.29942 35015 ft 509 kts 126°
2026-05-06 09:34 44.20409 20.38105 35018 ft 509 kts 126°
2026-05-06 09:35 44.16443 20.46210 35022 ft 510 kts 126°
2026-05-06 09:35 44.12443 20.54364 35010 ft 510 kts 126°
2026-05-06 09:36 44.08440 20.62502 35011 ft 509 kts 126°
2026-05-06 09:36 44.04427 20.70632 35021 ft 510 kts 126°
2026-05-06 09:37 44.00409 20.78748 35013 ft 510 kts 126°
2026-05-06 09:37 43.96379 20.86870 35025 ft 511 kts 126°
2026-05-06 09:38 43.92341 20.94986 35017 ft 511 kts 126°
2026-05-06 09:38 43.88290 21.03106 35026 ft 512 kts 126°
2026-05-06 09:39 43.84232 21.11216 35024 ft 512 kts 126°
2026-05-06 09:39 43.80166 21.19320 35028 ft 512 kts 126°
2026-05-06 09:40 43.76096 21.27410 35016 ft 512 kts 126°
2026-05-06 09:40 43.69976 21.39531 35026 ft 512 kts 125°
2026-05-06 09:41 43.65913 21.47551 35030 ft 512 kts 125°
2026-05-06 09:41 43.61817 21.55612 35032 ft 513 kts 126°
2026-05-06 09:42 43.57713 21.63670 35036 ft 513 kts 125°
2026-05-06 09:42 43.53602 21.71717 35045 ft 513 kts 125°
2026-05-06 09:43 43.49477 21.79771 35044 ft 514 kts 125°
2026-05-06 09:43 43.48345 21.81978 35048 ft 514 kts 125°